Weather History for Key West NAF, FL

Change the Weather History Date:

Sunday, August 10, 2014

  Actual Average Record
Temperature  
Mean Temperature 86 °F -  
Max Temperature 91 °F 89 °F 95 °F (2011)
Min Temperature 82 °F 78 °F 69 °F (1952)
Cooling Degree Days 22    
Growing Degree Days 36 (Base 50)    
Moisture  
Dew Point 77 °F    
Average Humidity 72    
Maximum Humidity 82    
Minimum Humidity 59    
Precipitation  
Precipitation 0.00 in - - ()
Sea Level Pressure  
Sea Level Pressure 30.05 in    
Wind  
Wind Speed 8 mph (ESE)    
Max Wind Speed 13 mph    
Max Gust Speed -    
Visibility 10 miles    
Events      
Averages and records for this station are not official NWS values.
T = Trace of Precipitation, MM = Missing Value Source: NWS Daily Summary

Daily Weather History Graph

Daily Weather History Graph

Search for Another Location

Airport:

Trip Planner

Search our weather history database for the weather conditions in past years. The results will help you decide how hot, cold, wet, or windy it might be!

Date:

Astronomy

Aug. 10, 2014 Rise Set
Actual Time 6:59 AM EDT 8:04 PM EDT
Civil Twilight 6:35 AM EDT 8:28 PM EDT
Nautical Twilight 6:06 AM EDT 8:57 PM EDT
Astronomical Twilight 5:37 AM EDT 9:26 PM EDT
Moon 7:59 PM EDT (8/10) 6:44 AM EDT (8/10)
Length of Visible Light 13h 53m
Length of Day
13h 05m
Full, 100% of the Moon is Illuminated
Aug 10
Full
Aug 10
Full
Aug 17
Last Quarter
Aug 25
New
Sep 2
First Quarter

Hourly Weather History & Observations

Time (EDT) Temp. Heat Index Dew Point Humidity Pressure Visibility Wind Dir Wind Speed Gust Speed Precip Events Conditions
12:53 AM 84.0 °F 92.6 °F 75.9 °F 76% 30.07 in 10.0 mi East 6.9 mph - N/A   Clear
1:53 AM 84.0 °F 93.7 °F 77.0 °F 79% 30.06 in 10.0 mi ESE 6.9 mph - N/A   Clear
2:53 AM 82.9 °F 91.8 °F 77.0 °F 82% 30.05 in 10.0 mi ESE 5.8 mph - N/A   Clear
3:53 AM 84.0 °F 93.7 °F 77.0 °F 79% 30.04 in 10.0 mi ESE 6.9 mph - N/A   Partly Cloudy
4:53 AM 82.9 °F 90.8 °F 75.9 °F 79% 30.03 in 10.0 mi ESE 6.9 mph - N/A   Partly Cloudy
5:53 AM 84.0 °F 93.7 °F 77.0 °F 79% 30.03 in 10.0 mi East 6.9 mph - N/A   Scattered Clouds
6:53 AM 84.0 °F 93.7 °F 77.0 °F 79% 30.04 in 10.0 mi ESE 9.2 mph - N/A   Mostly Cloudy
7:53 AM 84.9 °F 95.3 °F 77.0 °F 77% 30.05 in 10.0 mi East 10.4 mph - N/A   Mostly Cloudy
8:53 AM 86.0 °F 96.9 °F 77.0 °F 74% 30.06 in 10.0 mi ESE 12.7 mph - N/A   Mostly Cloudy
9:53 AM 89.1 °F 101.4 °F 77.0 °F 67% 30.06 in 10.0 mi ESE 10.4 mph - N/A   Scattered Clouds
10:53 AM 90.0 °F 104.5 °F 78.1 °F 68% 30.07 in 10.0 mi SE 9.2 mph - N/A   Mostly Cloudy
11:53 AM 90.0 °F 104.5 °F 78.1 °F 68% 30.08 in 10.0 mi East 9.2 mph - N/A   Mostly Cloudy
12:53 PM 91.0 °F 107.6 °F 79.0 °F 68% 30.07 in 10.0 mi East 10.4 mph - N/A   Mostly Cloudy
1:53 PM 91.0 °F 106.2 °F 78.1 °F 66% 30.06 in 10.0 mi ESE 8.1 mph - N/A   Scattered Clouds
2:53 PM 91.0 °F 106.2 °F 78.1 °F 66% 30.05 in 10.0 mi SE 11.5 mph - N/A   Partly Cloudy
3:53 PM 91.0 °F 102.9 °F 75.9 °F 61% 30.03 in 10.0 mi SE 10.4 mph - N/A   Partly Cloudy
4:53 PM 91.0 °F 101.6 °F 75.0 °F 59% 30.01 in 10.0 mi SE 9.2 mph - N/A   Partly Cloudy
5:53 PM 89.1 °F 99.1 °F 75.0 °F 63% 30.01 in 10.0 mi SE 9.2 mph - N/A   Partly Cloudy
6:53 PM 88.0 °F 98.5 °F 75.9 °F 67% 30.01 in 10.0 mi East 5.8 mph - N/A   Partly Cloudy
7:53 PM 86.0 °F 96.0 °F 75.9 °F 72% 30.02 in 10.0 mi ESE 8.1 mph - N/A   Partly Cloudy
8:53 PM 84.9 °F 94.1 °F 75.9 °F 74% 30.04 in 10.0 mi East 8.1 mph - N/A   Partly Cloudy
9:53 PM 84.9 °F 94.1 °F 75.9 °F 74% 30.05 in 10.0 mi East 6.9 mph - N/A   Partly Cloudy
10:53 PM 84.9 °F 94.1 °F 75.9 °F 74% 30.05 in 10.0 mi East 8.1 mph - N/A   Clear
11:53 PM 84.9 °F 94.1 °F 75.9 °F 74% 30.05 in 10.0 mi East 8.1 mph - N/A   Clear